GFSMW_sfc_thetae_000.txt.gz
Theta_e
305 309 311 313 313 314 312 311 310 311 311 314 314 315 316 318 318 321 323 324 325 324 326 326 325 328 326 327 327 327 327 327 330 326 326 328 329 330 330 331 332 334 334
304 308 310 311 311 311 313 312 311 312 312 313 314 315 316 320 320 322 323 325 326 326 326 327 327 327 327 327 327 326 325 327 328 324 323 318 322 326 328 330 330 331 333
302 305 307 307 310 309 310 314 312 310 309 313 316 317 319 321 322 322 322 324 327 327 326 327 327 326 327 326 326 327 327 324 327 327 323 317 316 318 323 324 326 327 329
303 305 306 304 309 310 312 312 312 311 312 312 317 316 316 317 320 322 323 324 325 327 327 326 326 326 327 325 326 327 327 326 322 325 327 326 324 315 313 317 319 322 324
303 304 305 306 309 312 312 313 313 313 313 314 318 319 318 319 320 321 321 323 325 327 328 327 327 327 326 326 326 326 326 327 324 324 323 323 322 321 318 312 313 315 317
302 305 306 306 307 311 313 312 314 315 313 315 317 317 314 314 315 317 319 322 324 326 328 327 327 327 326 327 326 326 326 325 326 325 324 322 320 319 316 315 310 311 310
302 304 304 304 306 309 312 313 314 313 313 314 316 317 313 314 315 317 319 321 323 325 325 326 326 326 327 327 327 325 325 326 324 323 322 323 322 321 319 313 307 308 306
302 304 304 304 306 308 312 314 313 312 312 313 314 314 314 313 313 315 320 320 323 323 325 326 326 326 327 327 328 326 325 325 323 322 323 323 323 323 319 313 305 299 303
301 304 304 305 306 307 310 314 314 311 311 312 313 314 314 313 313 313 315 319 322 325 324 323 322 324 326 327 326 326 324 326 325 325 324 324 322 322 315 312 311 308 304
301 303 304 305 306 307 309 314 314 311 311 311 312 312 312 313 312 312 313 316 317 318 317 316 317 317 319 322 323 322 324 323 322 323 321 321 320 318 315 311 311 311 306
302 303 305 305 306 306 308 313 313 310 310 309 311 312 312 312 312 312 312 314 315 317 316 317 317 318 318 320 319 318 321 319 319 320 320 318 317 313 309 312 310 309 309
303 304 304 304 305 306 308 311 312 310 309 309 311 311 311 311 311 312 311 313 314 316 317 318 317 316 316 317 318 317 317 316 317 316 316 313 312 312 312 314 313 312 312
302 302 303 304 305 306 308 311 311 310 310 311 311 310 309 309 310 311 311 312 313 315 316 316 314 313 313 313 313 313 313 313 313 315 315 313 314 312 313 314 314 313 314
303 303 303 303 305 307 309 311 311 311 311 312 311 310 308 308 309 310 311 312 313 313 314 314 313 312 311 311 310 309 308 309 309 311 312 312 314 314 313 313 314 314 314
302 304 304 304 305 307 308 311 311 311 312 312 311 311 308 308 309 310 309 310 311 312 313 312 310 310 310 308 308 308 308 308 307 307 308 309 311 310 311 311 313 314 310
303 304 306 306 306 308 308 310 309 310 312 312 311 311 307 307 308 308 308 308 308 309 311 311 310 310 308 300 302 305 305 305 306 306 304 306 307 306 304 305 305 307 310
304 305 306 307 308 309 310 309 308 310 312 312 313 311 308 308 308 307 306 306 306 307 308 309 309 309 307 298 298 300 302 302 302 302 301 302 302 304 305 303 302 301 301
305 306 307 308 309 310 309 309 307 310 312 312 313 312 309 307 308 307 305 304 304 305 305 306 307 308 306 297 296 297 299 298 297 298 298 301 301 301 303 303 302 301 301
307 307 309 309 310 310 310 308 307 310 312 312 313 313 309 307 307 306 304 303 302 302 302 304 304 306 306 297 295 297 297 297 297 297 297 297 298 295 294 301 300 299 297
308 308 309 310 310 311 310 307 306 309 311 313 315 314 310 308 307 307 305 305 303 304 303 303 303 302 306 296 295 298 299 298 298 301 301 297 295 293 292 299 299 299 299
309 309 309 309 310 311 310 308 307 308 312 315 316 315 311 308 308 307 306 306 305 304 303 303 303 303 303 302 296 296 305 305 303 303 303 302 295 292 292 293 298 298 295
310 308 308 309 310 311 311 309 307 310 312 315 316 316 313 311 308 307 306 307 305 304 303 303 302 302 303 298 295 295 297 301 306 305 304 303 295 294 292 294 292 289 291
309 308 308 309 310 311 312 310 310 310 311 314 315 316 314 313 309 307 306 307 306 305 304 304 303 303 303 303 296 294 294 296 304 305 300 296 294 293 294 292 292 290 293
310 309 308 308 309 311 312 312 313 312 312 313 314 316 315 314 311 309 308 308 307 306 306 306 306 306 306 306 304 302 299 295 299 299 300 298 296 294 296 296 295 297 295
312 310 308 308 309 311 312 313 313 313 311 312 314 315 316 314 315 313 310 309 310 309 309 309 309 309 308 309 305 304 303 300 298 298 297 297 300 302 302 297 296 295 295
311 311 310 310 310 310 311 312 314 314 312 312 313 314 315 315 316 315 314 301 300 299 298 296 307 312 302 299 297 297 296 294 292 298 299 299 299 301 301 299 298 295 293

GFSMW_sfc_thetae_003.txt.gz
Theta_e
314 318 321 321 322 325 325 324 325 326 325 326 325 326 326 326 330 329 325 326 329 329 332 332 332 332 327 329 332 332 332 333 336 329 328 329 331 333 334 335 334 335 335
312 316 319 321 322 322 323 326 323 324 322 324 327 323 327 328 328 328 329 329 327 329 330 330 329 331 330 330 332 333 332 332 335 326 324 319 323 328 333 333 333 333 335
311 315 317 320 321 320 320 324 325 324 323 325 328 329 330 328 326 326 325 325 327 328 331 330 332 332 333 332 333 335 332 326 332 335 328 319 316 321 327 329 331 332 333
312 315 317 318 321 321 321 321 323 325 323 327 330 329 327 324 326 327 329 330 328 328 328 328 328 328 331 333 333 336 332 329 326 333 330 329 328 318 315 320 324 328 329
312 314 316 317 320 322 324 326 325 326 325 329 330 327 326 327 329 330 328 332 330 333 331 329 331 329 328 329 333 331 329 331 330 325 327 327 328 325 324 314 316 317 322
311 315 317 317 319 323 323 325 327 325 326 328 328 327 325 326 326 327 326 327 328 332 333 332 332 330 332 330 333 335 335 334 334 333 328 326 324 322 322 317 316 314 314
311 314 314 314 317 320 323 324 325 323 324 326 329 328 325 326 323 323 325 325 327 327 328 329 329 327 330 331 331 329 335 334 330 331 329 331 328 330 324 319 311 313 312
311 314 315 315 316 319 323 323 323 322 322 324 327 326 326 324 322 330 325 328 327 327 327 329 329 329 328 332 335 336 335 335 332 331 330 327 325 323 322 317 310 306 311
311 313 315 316 317 319 322 325 325 323 322 323 326 326 325 325 323 325 328 330 329 329 330 326 329 333 332 330 329 333 332 327 326 326 326 325 324 323 317 316 318 317 312
311 313 315 316 318 320 321 325 327 323 321 322 325 324 323 323 324 325 328 328 327 325 324 322 323 330 332 328 329 331 333 328 331 329 329 327 326 322 322 316 316 321 315
311 313 315 316 318 320 319 323 326 322 322 322 323 323 322 322 324 323 325 326 326 325 322 323 323 324 328 326 326 329 331 330 330 332 330 329 330 328 324 321 318 317 316
312 313 315 316 316 318 319 321 326 322 322 321 322 322 322 322 323 323 324 326 327 327 326 326 326 324 325 325 323 326 329 330 329 328 329 328 327 328 326 322 321 318 320
311 313 314 315 315 317 318 320 324 322 320 320 321 321 321 322 322 322 323 325 326 325 325 325 325 324 324 324 324 325 325 329 329 329 329 327 328 325 323 323 319 320 319
311 312 313 314 316 316 318 320 323 321 319 319 321 320 321 321 322 322 323 325 325 324 324 323 322 321 322 323 322 322 321 321 324 326 326 326 327 326 325 323 323 322 321
311 312 313 314 316 317 318 321 323 320 320 319 321 321 320 320 321 321 322 323 325 324 323 322 322 322 321 319 322 323 323 321 320 321 319 320 317 314 317 323 324 324 320
311 312 313 314 315 316 318 320 322 321 320 320 320 321 317 318 320 320 321 322 323 323 323 323 322 322 316 301 305 319 323 323 322 320 319 318 314 309 306 309 311 321 324
311 312 313 314 316 317 319 320 322 322 320 320 320 320 317 317 319 318 319 320 322 323 322 322 322 322 319 299 300 306 323 323 322 321 319 314 312 315 316 304 303 303 303
313 314 315 317 318 319 320 321 322 321 320 320 319 319 316 317 318 318 319 320 320 322 322 321 322 322 318 298 297 302 318 318 316 317 317 318 316 313 315 317 317 316 316
317 317 317 318 318 318 320 321 320 320 319 319 319 319 316 317 318 317 318 318 318 318 319 320 320 321 319 297 295 305 314 312 310 309 309 311 310 297 296 314 314 313 312
318 317 317 318 319 320 321 320 319 319 319 319 320 320 317 317 318 320 318 317 318 318 316 316 318 312 319 296 294 304 310 310 306 307 307 296 304 294 294 311 311 309 311
318 319 317 318 320 322 322 319 319 318 320 320 321 321 319 318 320 321 319 318 316 316 315 315 316 316 316 315 295 294 312 309 307 306 307 307 293 293 292 296 309 308 308
319 317 316 318 320 321 321 320 320 321 321 321 320 322 321 317 318 320 319 318 318 317 316 316 315 315 317 303 297 294 296 305 315 314 313 312 294 292 292 294 297 293 294
320 317 316 317 318 321 321 320 321 321 320 321 321 322 322 319 318 319 319 317 318 315 315 313 312 312 313 315 297 295 294 295 310 317 309 300 294 293 294 292 294 290 303
320 318 317 316 316 319 320 322 321 320 319 321 322 323 322 320 319 317 318 317 316 315 314 313 313 314 314 313 313 310 306 297 302 300 309 304 302 299 301 303 302 307 310
321 318 316 317 317 318 319 321 322 321 321 323 323 322 322 321 320 318 317 316 321 316 316 316 316 317 317 317 311 310 313 314 308 309 312 311 310 310 311 312 311 309 308
321 319 317 317 318 318 318 320 320 321 322 322 322 321 321 321 321 319 318 302 301 299 298 298 311 318 304 298 297 296 297 296 293 307 312 313 311 309 314 315 316 315 307

GFSMW_sfc_thetae_009.txt.gz
Theta_e
321 323 325 326 325 325 329 329 328 333 332 331 331 337 337 332 334 335 330 331 333 333 335 338 337 337 335 335 337 334 334 332 332 333 336 338 341 336 338 335 336 336 334
319 321 325 326 325 325 327 328 328 331 333 335 335 334 335 334 331 334 334 332 332 333 334 335 332 334 332 335 335 337 329 328 335 328 328 323 329 331 335 334 337 335 335
319 321 323 325 325 323 327 328 328 332 336 338 338 337 337 336 335 334 332 333 332 333 334 334 333 333 334 333 338 335 333 329 336 335 329 320 319 324 330 332 335 334 333
321 322 323 324 324 323 328 329 330 333 335 337 334 334 334 332 337 335 336 334 334 333 334 334 334 335 333 336 336 340 337 335 329 334 339 335 330 321 318 329 330 330 331
321 321 322 324 323 323 327 330 332 333 334 336 336 335 335 335 337 336 333 335 335 333 333 334 335 336 340 340 337 338 336 341 331 336 336 333 329 329 321 317 321 327 330
320 322 324 324 322 323 327 329 331 331 333 334 334 334 333 333 333 329 332 331 334 333 334 334 335 337 338 338 340 339 339 338 338 339 333 331 326 323 325 319 320 321 322
320 321 322 321 322 322 325 328 329 328 329 332 332 334 334 334 333 333 328 328 333 328 334 336 336 338 338 339 338 341 339 338 335 333 330 332 331 330 325 321 320 316 318
320 321 322 322 321 322 324 326 327 327 328 330 331 333 334 334 333 330 331 329 330 334 335 335 336 335 337 338 339 340 340 340 334 333 333 332 329 326 324 322 319 315 316
320 321 322 323 321 322 324 326 326 326 327 328 331 331 332 334 337 336 336 332 336 334 335 334 336 336 336 337 339 339 336 337 335 335 328 329 327 327 323 324 326 321 316
320 321 322 323 320 322 326 328 327 325 326 327 328 329 330 333 334 333 333 334 331 335 333 334 332 334 336 337 339 338 335 331 333 334 327 325 323 324 323 322 322 323 321
319 320 322 323 320 322 324 327 327 323 325 326 327 327 328 330 332 332 333 331 335 331 333 333 334 333 333 336 337 335 333 330 330 327 325 323 322 321 320 320 322 323 324
320 321 322 322 319 321 323 325 327 322 323 324 325 325 327 329 331 332 333 334 333 331 328 332 333 332 333 333 334 333 331 329 328 327 325 322 324 322 321 319 321 326 328
320 321 321 320 318 321 322 323 326 323 321 322 324 325 326 328 329 330 331 334 334 333 330 330 328 330 333 333 334 330 332 332 331 328 325 325 324 323 324 324 326 331 330
320 321 321 320 318 321 321 323 325 324 321 320 322 325 325 326 329 330 329 330 331 332 333 332 330 328 330 333 334 334 334 332 330 331 332 332 328 330 334 332 329 331 329
319 320 321 320 318 321 321 322 324 323 320 320 320 324 325 326 328 329 329 327 327 327 328 330 331 330 331 332 335 335 336 335 334 335 333 335 330 323 326 332 333 333 327
319 320 322 320 318 320 321 322 324 322 320 320 319 322 323 323 325 328 329 328 326 325 326 326 327 327 323 305 313 328 332 333 331 326 327 326 321 314 309 311 313 326 335
320 321 322 321 320 320 322 322 324 323 321 321 320 319 322 322 323 325 325 326 328 330 328 327 327 326 325 304 308 315 331 332 332 332 330 324 320 322 325 311 309 310 310
321 322 323 324 322 322 323 324 324 322 320 320 320 318 319 322 323 323 325 329 330 330 329 327 327 327 316 303 307 314 334 334 332 331 329 329 328 324 324 324 324 324 325
325 324 326 326 324 322 323 324 323 323 320 320 320 319 317 320 322 323 327 330 331 332 329 328 327 326 322 300 301 310 331 328 328 326 327 328 327 304 304 323 323 324 324
327 326 326 327 325 324 324 324 322 322 320 320 321 321 318 319 321 325 329 330 330 329 326 326 327 319 326 299 298 307 320 324 320 322 319 302 314 299 299 324 323 321 323
328 329 327 328 330 329 328 323 323 322 322 321 322 322 321 321 325 331 331 330 328 327 326 324 327 326 325 316 298 298 319 317 314 312 312 311 297 296 295 295 323 317 314
327 328 326 327 331 327 327 323 325 325 324 322 321 322 323 321 322 329 328 327 329 328 325 325 323 322 324 312 297 296 296 303 318 317 316 312 294 294 294 297 296 297 301
327 328 328 328 330 329 327 326 328 325 324 322 321 323 323 321 324 326 326 322 327 321 320 318 317 317 320 322 300 296 295 297 319 321 303 294 292 292 293 292 294 293 312
327 328 328 327 328 330 329 328 326 325 324 323 325 326 324 321 325 324 324 321 320 318 317 316 316 317 319 320 319 315 311 298 308 309 314 311 307 304 306 308 303 311 314
328 328 328 328 328 330 329 328 327 326 326 328 326 327 324 324 324 324 322 320 325 319 318 320 318 320 319 319 314 312 316 318 313 317 320 319 318 317 317 317 319 321 321
327 328 328 328 329 330 329 329 328 328 329 329 325 323 322 323 320 321 321 304 304 302 299 298 309 319 306 299 300 300 300 300 299 313 321 321 321 321 322 322 324 321 315

GFSMW_sfc_thetae_012.txt.gz
Theta_e
323 325 326 329 329 332 334 337 337 340 338 336 335 336 337 336 337 337 333 331 332 332 334 332 329 333 330 328 329 329 328 328 330 327 327 331 336 334 333 335 332 332 333
321 323 326 328 329 330 333 336 337 339 340 338 338 338 336 336 335 336 334 333 331 333 335 332 330 332 331 330 329 329 326 327 328 326 324 320 325 329 331 332 330 330 332
320 322 324 327 328 329 331 334 336 340 341 341 340 338 337 335 332 333 330 331 333 333 334 334 331 331 333 331 329 330 327 325 327 329 326 319 317 323 328 329 330 330 330
322 322 324 326 328 327 331 334 337 340 340 340 337 335 332 330 332 328 333 330 333 333 333 334 332 332 332 331 331 330 327 325 324 330 332 330 325 319 318 327 328 330 330
321 321 323 326 326 327 330 334 337 340 341 341 339 335 333 334 335 332 331 329 328 334 333 333 334 332 332 332 333 330 329 327 327 328 328 328 327 325 320 316 322 327 329
321 323 325 326 325 325 329 334 336 338 340 340 339 334 332 331 331 329 329 331 332 332 334 333 335 335 332 334 336 333 330 330 331 331 329 327 323 321 321 320 320 321 326
321 322 323 322 323 323 328 330 333 333 336 337 337 335 334 333 331 329 327 330 329 330 332 333 335 336 336 336 336 334 332 330 331 330 331 330 327 326 325 322 319 316 321
321 322 323 323 322 323 327 329 330 330 334 334 336 336 335 335 330 330 331 330 330 332 333 334 331 334 335 335 335 332 333 334 332 331 331 329 327 327 325 322 319 316 317
321 322 323 323 323 324 327 331 331 331 332 333 336 336 336 334 334 334 335 331 333 333 332 333 333 334 334 333 333 331 331 332 331 331 328 327 326 325 325 324 323 320 315
321 322 322 324 323 325 328 332 331 330 331 333 335 333 336 334 335 336 335 332 332 331 328 329 331 334 333 333 334 332 333 331 328 327 326 324 324 325 324 324 323 324 321
319 321 322 324 322 324 325 330 330 328 329 331 332 334 334 334 333 333 332 331 330 331 331 329 330 332 333 333 333 330 330 330 328 326 323 322 324 323 322 324 323 323 322
320 320 321 323 319 321 324 327 330 325 327 328 329 331 334 334 334 332 334 332 327 331 331 332 331 332 331 333 330 329 330 327 326 325 323 322 323 321 321 323 321 322 322
320 320 321 321 318 320 323 324 327 324 324 324 326 330 333 332 333 330 334 334 329 330 331 331 331 331 331 330 331 330 329 328 326 324 322 321 321 321 321 321 320 320 325
320 320 321 320 318 320 322 323 326 325 323 322 325 328 331 332 333 332 334 332 334 329 329 331 330 331 332 332 331 331 330 329 326 326 324 323 323 323 323 322 322 326 324
319 320 321 320 318 321 322 323 325 324 323 321 323 327 331 333 333 331 331 332 332 331 329 329 332 332 333 333 331 331 329 327 326 326 326 325 324 323 324 327 325 327 322
319 320 322 321 318 321 321 323 325 323 322 322 321 325 325 327 332 333 331 329 328 329 328 327 327 326 320 307 316 329 331 330 329 328 326 323 318 316 314 316 314 320 320
320 321 322 322 320 322 323 323 325 322 321 321 320 323 323 323 328 329 330 330 331 332 327 326 325 324 318 305 308 317 329 326 325 325 324 324 324 321 319 309 310 310 309
322 322 324 325 323 323 323 325 325 322 319 320 319 320 321 321 324 327 329 331 332 332 329 326 325 323 312 305 306 317 330 330 328 328 325 320 324 319 323 323 322 322 322
325 325 326 327 325 324 324 324 324 322 319 319 320 318 320 322 322 325 329 332 333 332 331 328 326 322 318 304 304 319 329 329 327 324 323 328 322 304 304 323 321 321 316
327 326 327 327 325 325 325 325 323 322 319 319 321 319 318 323 324 328 330 332 334 332 328 328 328 319 322 300 300 307 326 325 323 321 312 305 314 300 301 320 321 318 319
328 328 328 326 325 326 326 324 323 322 322 321 322 321 321 324 327 331 331 332 332 330 331 327 330 327 323 313 300 299 318 321 317 316 314 307 298 297 297 303 317 309 309
327 328 327 327 327 326 325 324 323 325 324 322 321 322 324 320 325 329 329 330 330 331 328 328 326 327 326 312 298 296 299 300 318 312 313 305 295 295 295 300 296 297 304
327 328 327 329 328 326 325 323 326 327 324 323 323 324 323 322 325 327 327 326 328 325 322 322 320 321 323 316 301 296 297 300 316 313 307 295 294 295 295 294 296 297 310
327 328 327 328 328 327 326 326 327 326 324 324 325 325 322 321 324 325 326 323 322 321 320 318 317 318 319 320 313 310 306 299 310 303 301 299 301 302 305 301 297 307 311
328 328 328 328 329 329 327 328 328 325 324 326 325 325 323 321 324 324 324 322 323 319 320 318 318 318 317 318 311 310 313 317 314 318 315 315 314 313 313 314 315 315 315
328 328 331 331 330 330 329 328 328 326 326 326 324 323 322 320 323 322 323 302 306 301 299 300 312 320 311 300 300 300 301 301 300 312 317 317 317 317 317 317 318 316 313

GFSMW_sfc_thetae_015.txt.gz
Theta_e
315 319 321 321 319 319 321 322 322 321 322 324 323 323 322 325 327 328 327 325 325 326 324 324 323 324 320 320 321 320 322 321 321 320 321 325 330 330 333 336 335 334 334
314 317 319 318 317 317 319 323 321 322 324 325 326 326 326 327 326 326 328 328 327 326 325 325 323 323 322 323 321 320 318 319 322 319 319 318 323 327 329 331 331 331 332
313 316 318 316 317 317 319 321 322 324 326 326 326 325 325 325 324 324 326 325 329 327 326 325 323 323 323 322 321 320 319 318 322 322 321 317 315 321 327 327 329 329 329
315 316 318 316 316 318 319 322 324 325 328 326 324 322 320 319 323 325 326 325 329 327 327 325 324 323 322 322 323 323 320 320 319 321 326 322 322 318 318 325 326 328 327
314 315 317 318 319 318 320 321 323 325 326 326 325 323 322 323 323 321 321 321 323 327 328 326 324 323 323 323 325 322 321 322 323 320 320 321 321 323 321 317 321 326 327
314 317 319 319 318 318 319 323 323 324 325 325 325 323 322 323 321 319 320 321 325 326 327 327 325 323 323 324 325 323 322 318 322 322 322 321 320 321 320 319 320 321 323
315 316 317 316 315 316 319 321 321 320 322 324 324 324 323 322 321 319 320 320 322 323 324 325 324 325 323 326 325 323 324 323 323 322 322 322 324 325 323 321 319 319 323
315 315 316 315 314 316 319 320 320 319 321 323 323 324 324 323 321 321 322 322 322 324 326 326 326 326 327 327 326 324 324 325 326 324 322 324 323 325 324 322 320 317 318
314 315 316 314 314 315 317 318 320 318 321 323 322 323 324 324 324 323 324 323 325 328 326 328 326 326 326 326 326 326 327 327 325 325 324 325 323 323 324 325 324 320 315
313 315 315 314 314 315 316 319 320 318 320 322 322 322 325 326 326 325 324 324 325 323 325 328 327 327 327 328 328 327 325 326 326 325 324 324 324 323 324 325 325 323 320
313 314 314 315 315 316 317 319 318 318 317 319 319 321 322 325 326 324 326 323 326 326 328 328 326 327 328 328 327 326 324 323 323 323 323 323 324 324 324 325 325 323 323
312 314 314 313 314 315 316 318 318 318 317 319 318 320 323 324 325 325 325 326 324 326 327 328 328 328 326 325 325 325 325 323 320 320 323 322 323 323 324 325 323 322 322
312 312 314 312 313 314 316 318 319 316 317 319 316 320 322 322 323 324 323 326 324 324 326 327 327 328 328 327 327 327 325 323 323 322 322 322 322 322 323 323 322 322 325
313 313 314 310 313 313 317 318 318 315 315 318 315 319 320 320 321 323 325 326 326 325 325 326 328 328 329 329 328 327 325 324 323 323 323 322 323 322 322 323 320 320 320
312 313 313 310 311 311 315 318 318 314 315 317 315 317 319 322 322 322 324 325 327 325 326 325 327 328 329 330 328 328 326 324 323 323 324 324 323 322 322 322 319 320 319
314 314 315 311 312 313 314 317 317 314 314 317 316 318 318 321 322 319 319 322 323 322 322 321 319 320 324 309 315 324 325 325 324 323 323 322 321 319 317 316 316 320 317
314 315 315 313 313 314 314 316 316 313 313 317 318 318 318 321 321 320 319 319 320 318 318 318 317 312 311 308 311 316 328 326 324 323 322 324 325 320 321 309 308 310 311
315 316 316 313 313 315 314 316 315 313 313 315 317 317 317 319 320 319 319 319 319 317 317 317 315 311 307 303 307 312 322 320 321 321 321 321 318 317 315 315 316 316 315
317 317 318 315 314 316 316 317 314 312 312 313 314 317 316 316 317 319 317 319 319 318 316 315 314 311 307 304 308 319 320 319 319 318 316 318 314 305 308 316 314 313 308
318 318 319 317 316 316 317 316 315 312 311 313 314 316 316 316 315 319 319 320 320 320 319 316 313 311 308 300 302 315 320 314 312 308 311 309 308 300 307 314 314 311 309
319 321 320 316 316 317 318 316 315 313 313 314 314 313 316 316 316 320 321 321 321 319 317 318 314 313 309 305 299 302 316 314 311 308 305 305 297 300 302 308 313 310 307
320 321 319 316 317 318 318 316 315 316 315 314 315 313 314 319 323 321 321 321 320 318 317 316 315 316 312 305 297 297 301 301 310 308 305 298 294 295 296 297 295 298 303
320 321 320 317 318 319 318 316 316 318 317 314 313 314 315 316 322 321 320 318 318 318 314 316 313 315 315 308 297 295 300 301 310 306 303 295 294 294 294 294 297 299 303
320 321 321 318 317 318 318 319 320 320 317 314 314 315 313 315 321 322 321 319 316 315 313 313 311 311 313 308 299 298 301 300 298 298 296 295 294 295 295 293 293 298 303
321 322 322 320 318 318 319 320 322 320 316 315 316 314 313 317 318 320 320 318 317 315 314 311 311 309 312 312 302 301 303 305 303 302 300 299 296 299 302 304 301 303 306
322 322 322 322 321 320 320 321 321 320 317 317 317 315 313 316 317 317 315 300 302 303 303 303 309 312 308 301 298 298 299 300 300 308 306 305 305 304 305 306 308 309 308

GFSMW_sfc_thetae_021.txt.gz
Theta_e
308 312 313 316 317 317 317 316 318 318 317 319 318 319 319 320 321 322 323 327 325 322 319 319 320 319 317 316 317 316 317 320 319 319 315 321 320 325 328 330 330 332 333
311 312 313 316 318 316 316 317 317 318 319 320 319 320 320 320 321 321 322 325 326 324 322 321 319 318 316 316 316 316 315 319 321 315 313 311 315 321 326 332 331 331 332
310 311 313 315 315 315 317 317 317 319 322 321 320 319 318 319 319 319 320 322 324 327 324 322 320 317 316 315 315 317 317 316 316 317 314 310 308 319 325 327 331 331 330
311 312 312 311 314 315 318 317 319 321 321 321 319 316 315 314 316 317 318 319 323 326 324 322 320 318 317 316 316 318 318 317 315 317 322 318 321 313 315 324 327 329 328
311 311 311 312 312 315 316 318 320 321 320 320 318 316 315 316 317 316 317 317 321 323 324 321 319 318 317 317 318 317 317 317 317 318 318 320 321 321 319 315 319 326 328
310 310 311 312 312 314 316 318 320 320 320 320 318 316 315 314 313 314 316 318 319 320 321 322 319 319 318 317 318 317 317 318 318 319 319 319 318 316 316 317 318 319 323
310 310 311 311 311 314 316 317 319 318 319 320 319 318 316 315 314 315 316 316 317 318 318 319 319 317 318 319 318 317 317 318 318 318 320 317 318 318 321 320 318 318 321
310 311 311 311 312 315 316 318 318 316 318 319 318 318 318 317 316 319 318 318 318 318 319 320 320 320 321 320 317 316 316 318 318 319 320 319 320 323 323 321 319 316 318
310 311 311 311 312 313 316 317 315 316 318 319 319 318 319 318 321 320 318 319 320 323 321 320 320 321 321 319 318 317 318 318 318 317 318 319 319 322 323 323 322 318 314
310 311 311 310 313 314 314 316 315 315 318 318 318 320 320 321 321 320 320 319 319 320 320 320 320 321 320 320 320 323 324 323 324 320 319 321 320 323 323 322 322 321 320
310 312 311 310 313 312 312 315 314 316 316 317 317 319 320 320 320 319 319 320 320 321 321 321 320 320 321 322 324 322 323 322 323 323 322 321 321 322 322 323 323 323 323
311 311 310 308 310 311 311 314 314 315 315 317 317 319 320 320 318 318 320 320 320 322 323 323 322 322 321 323 323 321 319 320 322 323 322 322 323 321 321 324 323 323 324
309 309 308 309 310 310 313 313 314 314 314 314 317 318 319 319 317 319 320 321 321 321 323 323 322 322 321 321 322 323 322 322 322 323 323 323 324 322 322 324 323 324 324
310 310 309 309 310 311 313 313 313 313 314 313 317 317 316 317 319 318 320 321 322 322 322 323 323 324 323 323 322 322 321 321 322 322 324 324 324 323 323 323 323 323 322
309 310 309 309 309 309 312 314 313 313 313 314 316 315 315 318 320 321 320 321 322 323 325 326 326 326 325 324 322 321 321 320 321 322 323 324 323 320 320 323 322 322 320
311 311 310 309 310 311 312 314 313 313 313 314 315 315 316 318 319 319 320 320 320 321 324 326 326 325 325 307 312 319 321 322 321 321 322 322 319 316 313 314 315 319 318
311 312 311 310 311 312 314 312 312 313 312 312 316 316 317 318 316 320 318 316 314 316 318 321 323 321 320 305 307 312 323 322 322 322 322 324 322 320 321 312 312 310 310
312 313 312 311 310 313 313 313 311 314 313 312 315 315 318 316 315 316 315 312 312 312 313 315 319 320 315 303 304 310 324 323 323 322 322 323 322 320 320 319 314 314 313
313 314 314 312 309 312 313 313 311 313 313 312 314 314 318 315 314 314 312 310 311 311 311 312 315 316 313 300 303 317 323 322 321 322 322 323 320 305 305 314 311 310 308
314 314 314 311 309 311 313 312 310 312 312 313 314 313 317 316 315 314 312 311 310 311 312 312 313 309 312 300 302 314 319 317 318 319 318 310 315 300 301 312 309 309 307
312 314 313 311 311 311 314 311 309 311 314 315 314 313 314 315 315 314 313 311 311 310 310 309 308 308 309 306 301 305 318 316 315 315 313 313 301 298 298 304 308 307 304
312 313 312 311 311 313 314 311 309 312 314 314 314 312 312 316 316 314 314 313 311 309 308 308 307 306 304 301 300 301 305 306 314 313 312 306 297 297 297 303 300 295 301
314 314 313 310 311 313 315 311 311 310 312 312 312 310 311 312 315 313 313 313 310 309 307 307 307 307 306 301 297 299 298 301 309 310 305 295 294 294 297 295 295 298 303
313 314 312 310 310 313 314 314 311 311 312 310 310 309 311 310 314 315 315 315 312 310 311 309 307 307 306 303 298 301 302 301 302 298 296 295 295 295 296 297 298 301 305
314 315 312 311 311 313 314 314 312 311 310 310 308 309 311 312 314 316 315 316 316 315 314 313 312 309 308 306 299 299 301 303 301 294 292 292 293 293 292 293 297 301 303
315 315 313 313 313 314 314 314 314 312 310 309 308 308 311 312 314 315 311 298 302 301 301 302 309 312 307 300 296 294 295 294 293 294 292 291 292 294 293 294 295 299 302

GFSMW_sfc_thetae_024.txt.gz
Theta_e
307 309 311 315 317 318 318 317 318 318 317 318 319 319 320 321 322 323 325 325 327 325 322 321 322 322 320 319 319 320 321 321 323 319 320 322 323 325 329 334 332 333 335
309 309 310 314 317 318 317 317 318 317 318 320 319 321 321 321 322 323 324 326 327 325 322 320 322 321 319 318 319 320 319 321 322 318 318 316 320 325 328 331 332 331 335
308 308 311 313 315 315 316 316 317 318 321 321 320 320 319 319 320 321 322 323 325 326 326 324 322 321 319 318 318 320 321 319 321 321 319 314 312 320 327 328 330 330 331
309 309 311 312 315 315 317 317 318 320 321 321 319 317 316 315 318 319 320 321 323 326 326 324 323 320 319 318 319 320 321 322 318 322 324 322 323 316 316 326 327 330 329
308 309 311 314 314 316 316 317 319 320 320 321 319 317 316 317 318 318 319 320 322 325 325 323 321 320 319 319 320 320 321 322 321 321 322 322 323 323 319 317 321 326 328
307 309 312 313 313 315 316 318 319 320 320 320 319 317 316 316 316 317 318 319 322 323 324 323 321 321 320 320 321 321 321 321 323 323 321 323 323 320 321 319 320 320 323
307 309 310 311 312 314 316 318 319 319 320 320 319 318 318 317 318 318 319 319 320 321 322 321 321 321 321 321 321 321 321 322 323 323 322 321 323 322 324 322 320 319 321
307 309 310 310 313 315 316 318 318 318 319 320 319 319 319 319 319 322 320 320 320 321 322 322 322 322 322 321 321 321 321 323 323 323 323 323 325 326 325 321 319 316 318
307 308 310 310 312 314 316 317 317 317 319 320 319 319 321 321 321 321 323 322 323 324 322 323 323 323 322 321 321 320 321 322 322 322 323 323 324 326 325 325 321 317 315
307 309 310 310 312 315 316 316 316 317 319 319 320 321 322 323 322 323 321 321 322 323 323 322 323 323 322 321 322 323 323 323 322 322 323 324 324 324 325 324 324 323 320
308 309 310 311 312 313 314 315 315 316 318 318 318 320 322 322 321 321 322 322 323 323 323 322 323 322 322 324 324 324 325 324 323 323 323 323 324 324 324 326 326 324 324
309 310 310 309 311 312 312 315 315 315 318 318 318 320 322 322 319 321 322 323 322 324 323 323 323 322 321 324 323 322 322 322 322 323 324 323 324 323 325 325 326 324 326
308 308 307 309 311 311 312 314 315 315 316 316 318 320 321 320 319 321 322 323 323 324 324 324 323 322 322 323 323 323 322 323 324 324 324 324 325 324 325 325 324 325 325
309 309 308 308 310 311 313 314 314 315 315 316 318 318 319 320 320 321 322 323 324 323 323 324 324 322 323 323 323 323 323 323 323 324 325 325 324 323 324 324 324 324 323
308 309 309 308 308 309 312 314 314 314 314 316 317 316 318 320 322 322 322 323 324 325 324 325 325 324 323 323 322 322 322 322 322 324 324 326 324 320 322 324 323 323 322
310 310 310 309 308 311 312 314 314 313 314 316 316 316 318 320 321 321 321 322 323 325 326 325 325 324 324 306 310 319 322 322 322 322 322 321 318 315 312 313 313 318 320
311 311 311 310 310 311 314 313 313 313 313 316 316 317 319 319 320 321 319 318 318 321 323 323 324 322 318 304 305 311 323 322 322 322 323 323 320 320 320 311 311 312 312
311 312 312 311 311 312 313 314 313 313 313 314 316 317 319 316 319 318 316 315 315 318 320 321 322 321 314 302 303 309 324 324 323 324 324 322 322 320 321 320 318 317 318
313 314 313 312 310 312 313 314 312 313 313 313 316 316 318 316 317 316 314 314 315 315 316 319 320 320 312 301 303 316 323 322 322 323 323 324 321 304 306 318 316 314 312
313 314 313 311 311 313 313 312 312 312 312 313 315 316 318 316 316 315 313 314 315 315 316 317 319 312 316 299 302 316 323 321 322 322 319 310 318 299 303 317 316 315 312
313 314 312 310 311 313 314 312 312 312 314 315 315 315 317 317 317 315 314 313 314 314 314 313 314 317 316 310 300 306 321 321 320 320 319 319 301 299 299 304 314 313 309
312 314 312 310 310 313 314 312 311 315 315 315 314 314 316 318 317 316 314 313 313 312 311 311 310 309 312 304 300 303 307 310 320 320 319 315 298 298 297 304 300 296 303
313 314 313 310 310 313 314 312 313 313 314 314 313 312 315 316 316 315 314 312 312 311 311 312 311 310 308 308 299 299 299 304 318 319 311 297 295 296 298 298 295 299 310
313 314 312 310 309 313 314 315 312 314 314 313 312 311 313 313 315 317 316 314 311 311 311 311 312 311 309 307 306 308 307 301 306 301 301 298 299 298 301 301 302 309 311
313 313 312 311 311 313 314 313 312 313 313 312 312 311 312 314 314 316 316 317 316 313 313 313 313 312 311 310 302 305 310 311 304 300 301 301 301 302 302 303 305 308 309
313 313 312 312 312 313 314 312 312 313 312 310 310 311 311 312 315 315 312 297 303 301 299 301 309 313 305 299 296 295 295 294 293 302 302 303 303 303 303 303 303 308 306

GFSMW_sfc_thetae_027.txt.gz
Theta_e
320 317 318 321 324 326 328 330 331 333 332 330 330 331 331 334 334 335 336 335 335 335 334 332 331 330 329 330 330 328 327 329 331 327 324 326 329 333 337 336 336 336 341
317 317 317 321 324 325 327 329 332 332 332 332 333 335 336 335 334 335 335 335 335 336 334 331 327 330 329 330 328 328 326 328 329 326 327 319 326 329 334 333 334 335 338
317 317 317 321 324 325 327 330 331 332 332 335 334 334 334 332 332 333 333 335 333 334 333 330 329 330 331 328 328 328 329 326 328 331 326 317 318 323 332 331 334 337 335
316 318 318 321 323 325 329 331 331 332 334 335 334 333 329 328 331 331 332 332 332 332 333 333 332 332 330 330 328 329 330 330 326 327 332 332 329 321 319 329 332 335 333
317 317 319 321 324 326 327 330 331 333 334 334 334 330 329 330 331 330 330 332 334 332 331 333 332 332 330 330 329 329 330 330 330 330 330 331 331 331 326 320 326 330 331
316 318 321 323 324 326 327 329 331 332 334 334 333 330 328 328 329 330 331 331 331 331 333 331 332 332 330 330 329 330 328 327 332 333 333 332 329 329 329 322 324 323 326
316 317 319 321 323 324 326 329 331 331 332 333 331 330 329 329 329 330 330 330 330 331 332 333 332 330 332 331 331 331 331 331 332 333 331 333 334 333 332 326 322 321 324
317 318 320 322 323 325 327 328 330 331 332 332 331 331 330 332 332 332 332 332 331 331 334 332 332 332 331 331 332 331 331 332 333 330 325 329 330 332 335 327 324 320 322
316 318 320 322 323 325 327 329 330 331 332 332 332 331 333 332 333 332 333 334 333 332 333 333 331 332 332 331 332 330 331 332 333 333 329 328 332 333 333 333 327 324 318
316 317 319 321 324 326 328 329 330 330 331 332 331 332 333 333 331 334 331 333 333 333 332 333 333 332 332 331 332 331 332 332 332 331 330 331 332 332 331 329 329 330 326
316 317 319 321 324 326 326 328 328 328 329 331 330 331 332 331 330 333 332 334 334 333 332 332 332 332 331 332 332 332 331 330 327 328 328 327 330 330 330 330 329 327 326
317 318 319 320 322 324 325 326 328 327 329 330 329 331 332 330 330 332 332 334 333 332 332 331 331 328 327 329 329 327 328 327 326 327 327 327 328 330 329 331 330 328 326
317 318 318 319 320 322 323 325 326 327 328 328 329 331 330 329 330 332 332 333 333 332 332 331 326 325 327 327 327 326 325 326 327 328 327 328 330 330 329 327 328 327 328
316 317 318 319 321 322 322 324 326 327 327 327 328 330 330 330 330 332 332 333 333 331 330 329 325 325 326 326 326 326 326 328 328 329 330 329 330 329 327 326 327 326 324
316 317 318 319 321 321 322 324 325 326 326 326 327 328 329 331 331 331 332 333 332 332 331 329 325 325 325 325 325 325 326 327 327 328 329 330 327 322 325 326 328 327 323
316 318 318 319 320 321 321 323 324 325 325 325 326 327 329 330 330 331 332 333 332 328 331 329 326 324 324 306 311 321 326 327 327 326 326 325 321 317 312 313 314 323 323
317 318 319 320 321 322 323 323 324 326 324 324 325 326 328 329 329 330 330 331 330 331 326 330 327 322 322 305 307 312 328 328 326 324 325 323 321 322 320 312 311 311 310
319 320 320 321 322 323 323 325 325 324 323 324 324 325 326 328 329 329 327 327 328 328 327 324 327 321 317 302 303 310 328 328 327 325 325 324 323 323 323 322 320 321 323
322 322 323 323 323 322 324 324 323 323 322 322 323 324 326 327 327 326 325 327 329 330 328 328 327 319 312 300 301 317 325 326 325 327 326 324 328 303 307 320 320 320 319
323 322 323 324 323 323 324 323 322 323 322 322 323 325 327 327 327 326 325 327 329 329 329 328 327 314 315 300 303 318 324 322 322 324 321 310 321 300 305 325 326 323 320
323 324 323 322 323 324 323 322 322 322 324 324 324 325 327 326 329 326 326 328 328 328 328 327 328 327 319 311 301 308 326 326 326 325 325 325 299 300 302 308 328 321 320
321 322 321 321 324 323 323 322 322 324 325 324 323 324 328 325 325 326 326 327 328 328 327 326 325 327 327 308 301 303 311 315 327 326 327 324 298 298 299 310 295 298 309
322 322 321 321 322 323 323 322 324 325 324 323 323 324 327 326 327 325 324 325 327 326 324 322 323 323 324 324 300 299 301 306 327 330 316 299 296 295 301 295 296 302 317
321 322 322 320 319 322 323 325 324 324 323 323 323 323 325 325 327 325 324 322 324 323 322 321 320 321 323 325 325 320 319 304 318 306 313 306 305 301 309 309 307 319 320
321 322 322 322 320 321 323 325 324 323 323 324 323 322 323 324 325 326 324 322 325 321 322 323 323 322 321 322 315 317 325 326 317 315 317 319 319 319 319 320 320 320 319
321 321 322 322 321 321 322 323 323 323 324 323 321 321 321 323 324 324 323 298 305 302 300 304 316 323 308 297 296 299 298 295 296 319 321 318 318 317 318 318 318 318 313

GFSMW_sfc_thetae_030.txt.gz
Theta_e
324 326 328 328 329 332 333 335 336 340 337 335 333 332 331 334 337 338 340 340 340 338 339 339 336 335 333 333 332 334 331 331 334 332 330 332 336 335 338 338 340 340 343
323 325 326 328 330 332 334 335 337 339 338 335 336 334 334 336 337 339 339 340 339 337 337 336 335 334 330 332 332 332 332 330 334 329 328 319 328 331 336 337 337 337 342
322 325 325 328 330 331 334 335 338 339 339 339 337 338 338 337 334 335 336 337 338 338 338 334 335 331 332 332 334 333 330 329 333 333 328 319 315 321 335 336 337 340 339
323 325 326 328 330 331 334 336 338 339 338 339 337 336 331 329 335 333 338 336 337 336 336 335 333 334 335 334 334 334 332 333 330 330 330 332 327 318 321 333 337 338 339
322 325 326 328 330 332 333 336 338 337 339 339 338 334 333 333 335 336 334 338 338 334 334 336 336 335 337 335 334 331 333 333 334 333 331 332 331 333 326 321 328 336 337
324 326 328 329 330 332 333 335 335 337 339 339 339 335 334 333 333 334 335 336 339 337 336 335 336 337 337 334 332 333 334 336 335 336 335 334 331 329 330 328 328 326 329
324 325 326 327 328 330 332 333 335 335 338 337 337 336 335 334 334 334 335 334 336 334 334 336 335 336 335 334 334 334 334 331 333 334 334 334 335 337 331 334 326 324 325
325 325 326 327 328 329 331 332 333 333 335 336 336 336 336 335 335 336 337 336 336 333 336 336 336 335 335 335 336 338 336 337 337 335 335 334 335 337 336 336 325 321 324
325 325 327 328 328 330 331 332 333 332 334 335 335 336 336 336 335 336 339 340 336 334 335 336 335 335 335 335 336 338 336 337 336 333 327 338 335 338 340 339 336 324 318
324 325 326 328 329 331 332 333 331 332 334 335 335 335 336 336 337 339 336 335 337 334 335 335 335 335 335 335 336 336 336 335 334 334 333 335 338 335 337 332 330 334 324
323 325 326 328 329 330 331 330 331 332 333 333 334 334 335 336 337 338 336 336 337 335 333 334 334 334 335 335 336 335 334 333 334 335 334 332 336 333 330 332 334 331 333
324 324 325 327 328 329 329 329 330 330 332 332 332 333 335 335 337 335 334 335 335 335 333 333 333 332 333 334 334 331 332 331 332 329 329 330 332 332 334 338 332 330 326
323 324 325 325 327 328 327 326 328 328 329 330 331 333 334 335 334 335 335 335 335 333 333 333 332 332 332 332 333 331 331 330 329 330 331 330 330 331 332 333 330 331 326
323 323 324 325 326 327 325 325 327 329 329 328 329 332 333 334 335 335 334 335 335 333 332 332 331 331 330 330 329 330 330 329 330 332 333 333 332 332 327 332 329 330 324
322 323 323 325 326 326 324 325 327 328 328 327 328 331 333 334 334 335 334 335 334 333 332 330 330 329 329 328 329 329 329 331 332 333 332 334 329 323 325 333 331 327 324
322 323 324 325 326 325 324 325 326 327 328 326 327 330 332 332 334 335 335 334 332 332 332 329 328 328 328 308 312 324 328 328 329 330 330 332 325 319 311 313 316 324 324
323 323 324 326 327 326 325 325 326 327 327 326 327 330 332 331 333 334 334 333 332 328 333 331 330 327 328 306 308 312 330 329 331 330 329 328 327 326 325 311 311 311 310
324 325 326 327 329 328 326 327 326 326 325 325 325 330 330 330 332 334 334 335 332 329 326 326 324 324 326 304 305 310 332 330 330 329 328 329 325 323 323 323 325 323 322
327 328 328 329 330 327 326 326 325 325 324 324 324 328 330 329 331 330 332 335 336 334 332 330 323 318 323 302 302 316 330 327 326 330 327 328 324 303 308 322 322 318 316
329 329 329 330 330 328 327 326 325 324 323 324 324 326 329 330 329 330 333 336 336 334 334 329 325 313 318 299 301 316 329 326 325 330 325 309 315 303 308 326 324 326 327
329 331 330 329 331 329 327 325 324 323 324 325 325 325 330 330 331 331 335 336 335 333 331 331 330 323 318 311 302 309 326 324 325 326 327 322 299 301 306 313 328 323 327
328 330 329 329 331 329 327 325 324 326 325 326 325 325 331 328 330 330 335 335 334 332 331 331 330 327 326 312 303 305 312 315 324 326 329 321 298 299 301 311 300 302 314
327 329 329 330 330 329 327 325 326 327 325 325 326 326 328 329 329 329 332 333 334 331 329 329 329 329 330 328 302 301 302 307 328 330 311 299 296 296 301 297 300 303 326
326 329 329 328 328 329 328 327 327 326 326 326 326 326 327 328 330 328 327 329 330 328 323 323 328 330 330 330 330 328 328 308 322 309 320 312 308 302 309 307 311 327 326
327 329 328 328 329 329 328 329 327 326 326 327 327 327 326 327 329 329 325 324 330 323 323 322 322 325 328 329 321 323 331 331 323 325 326 327 326 325 324 324 325 326 326
326 327 329 329 329 329 328 329 329 326 326 326 327 326 324 326 326 328 327 298 303 305 304 306 314 321 306 302 302 302 301 299 303 325 327 328 326 323 324 324 325 326 320

GFSMW_sfc_thetae_033.txt.gz
Theta_e
324 326 329 333 333 336 340 341 340 349 346 340 336 336 334 336 335 338 340 341 340 341 342 340 340 340 338 336 336 336 333 334 335 332 332 333 336 334 335 334 334 337 339
323 323 331 333 333 336 338 339 339 344 344 340 342 337 337 334 337 338 341 341 340 342 340 340 339 339 338 336 333 335 332 333 335 328 330 322 324 327 332 337 339 338 338
321 322 330 332 334 335 337 338 340 342 345 346 342 340 339 339 335 335 336 339 339 339 340 338 338 338 338 334 335 336 331 330 332 334 330 323 317 320 331 335 336 337 338
322 322 331 333 334 335 337 340 341 341 341 343 343 343 333 330 333 336 334 338 337 337 337 338 337 336 335 338 334 337 334 333 329 335 331 332 329 318 319 333 337 342 340
320 325 330 332 334 336 337 339 341 340 341 341 342 337 335 331 334 334 336 339 340 339 336 337 336 336 341 335 335 334 334 333 334 329 332 331 328 332 321 320 326 337 340
321 327 331 333 333 335 337 338 339 339 340 339 340 339 336 334 333 334 334 337 342 340 337 335 337 338 337 336 334 334 335 336 337 335 336 332 328 326 329 329 329 330 331
326 328 330 330 332 333 335 336 337 337 339 339 337 337 337 336 336 335 338 336 338 337 339 337 337 338 337 335 336 336 336 335 337 337 334 336 338 337 337 335 330 325 328
327 328 329 331 331 333 334 334 336 336 337 336 336 337 337 334 335 337 339 338 336 339 337 336 336 336 335 334 337 341 339 338 339 335 336 337 332 336 334 336 332 321 323
327 328 330 331 331 332 333 335 335 335 335 335 336 335 336 337 336 337 340 339 338 335 335 335 336 335 335 336 338 337 335 336 336 336 335 337 337 335 339 341 340 325 319
327 328 329 331 331 333 334 336 335 334 333 334 334 334 339 336 336 339 337 337 338 334 334 335 336 335 335 335 338 338 337 335 331 335 334 334 338 337 333 334 338 336 330
326 327 329 330 331 333 333 334 332 332 333 333 334 335 337 335 335 337 336 337 337 334 333 334 334 333 334 335 337 336 334 332 334 332 333 332 331 337 331 334 334 333 333
327 328 329 330 330 332 332 330 332 331 332 332 332 333 338 333 336 334 336 336 335 334 332 334 331 331 332 335 334 332 333 332 331 333 332 330 333 333 335 336 333 330 333
326 327 328 328 329 331 330 329 329 330 331 330 330 333 334 336 335 335 335 336 335 333 332 333 331 330 331 332 332 332 331 332 329 330 332 329 332 331 327 327 327 328 326
325 326 327 328 329 330 327 327 327 329 330 328 330 332 335 334 335 335 335 335 335 333 331 333 331 332 332 331 331 332 331 330 331 333 334 330 331 326 328 327 325 324 323
324 325 326 328 329 328 326 327 327 328 329 327 329 332 335 336 335 334 334 335 335 332 331 331 332 331 331 329 330 331 330 331 332 334 333 333 327 321 324 329 326 324 321
324 325 326 328 328 327 324 326 327 327 328 328 329 332 333 332 334 334 335 335 334 333 331 329 329 330 330 310 314 324 331 332 332 332 333 331 325 318 311 316 318 324 323
324 326 326 328 329 327 326 326 327 328 327 327 330 331 332 331 333 333 333 332 333 333 332 331 329 331 328 308 309 313 332 331 333 332 331 330 329 327 325 312 311 311 311
325 327 328 330 331 328 326 327 327 326 326 326 328 331 331 330 332 333 334 333 332 330 327 327 329 331 325 306 306 312 332 333 333 332 331 328 328 327 328 326 323 323 324
328 329 330 331 332 328 327 327 326 325 325 325 327 330 330 331 331 331 334 336 334 334 332 329 324 327 325 304 302 313 332 332 331 331 330 326 324 305 308 323 319 319 319
330 330 331 332 332 329 328 326 325 324 324 325 326 330 330 331 331 332 335 338 337 334 333 329 326 314 328 301 300 312 329 330 327 325 322 306 317 303 308 326 321 319 320
330 332 332 331 332 330 327 325 325 323 325 326 326 329 330 331 333 333 337 337 335 334 332 328 324 324 326 322 301 306 331 329 329 326 325 320 301 304 307 314 331 325 325
329 331 331 331 333 330 327 325 325 326 325 327 326 328 331 330 332 333 336 335 334 331 331 328 323 324 325 310 302 304 313 317 328 324 326 317 299 302 304 316 303 305 317
329 331 331 332 333 330 327 325 327 327 325 326 326 327 331 329 331 332 334 332 334 329 332 331 327 327 327 323 304 302 303 307 327 330 312 298 298 299 305 301 303 304 329
329 331 331 331 331 330 328 327 327 327 325 326 327 328 330 328 329 328 332 331 330 326 329 329 329 328 329 329 330 321 325 307 316 309 315 313 309 302 314 314 315 326 327
328 331 331 331 332 331 328 328 327 326 326 326 327 327 328 329 328 327 327 329 333 323 323 330 330 329 328 327 320 324 329 330 323 325 327 325 325 322 323 323 324 327 327
327 330 331 332 332 331 328 327 327 326 328 328 326 326 326 327 330 327 324 298 302 303 301 300 314 325 311 304 302 305 304 301 305 326 326 325 324 323 323 323 324 326 322

GFSMW_sfc_thetae_036.txt.gz
Theta_e
324 328 332 343 340 343 346 350 349 351 349 347 343 341 338 341 341 343 344 344 344 342 342 340 340 338 336 333 333 332 330 328 330 327 326 328 330 330 330 331 331 333 335
324 328 333 339 340 342 345 346 346 351 348 346 344 341 340 338 339 341 344 344 343 343 340 340 338 336 335 333 332 331 328 328 331 324 323 318 322 327 329 331 333 332 334
319 321 331 337 338 339 341 342 345 347 346 346 345 349 345 346 342 340 340 342 341 341 341 339 337 336 335 332 331 331 329 326 329 328 322 316 313 319 326 328 330 330 333
322 324 330 335 337 337 340 341 345 344 345 348 345 344 339 335 338 340 338 340 341 339 339 338 336 336 335 333 333 333 330 329 323 327 328 327 323 316 315 325 327 331 331
323 326 332 335 336 338 338 341 343 342 346 346 344 343 342 341 341 339 339 341 341 338 338 337 336 335 335 335 333 333 329 330 327 325 324 325 325 322 318 316 322 326 329
323 325 334 335 334 337 338 340 340 342 343 344 346 345 341 340 338 338 337 338 339 340 337 336 336 337 336 333 335 333 332 331 331 329 327 325 322 321 318 317 320 321 327
322 329 331 331 333 334 337 338 339 339 341 342 342 342 341 341 340 339 337 337 337 336 335 336 336 336 334 335 335 333 332 332 331 328 328 329 330 328 325 322 322 321 327
328 329 330 331 332 334 336 336 337 337 339 339 339 341 342 338 339 341 339 337 336 337 337 337 336 336 335 334 334 334 332 332 332 328 331 329 329 329 329 325 321 320 322
328 329 330 331 332 334 335 336 336 337 337 338 340 339 340 341 340 340 341 338 339 337 337 336 334 335 334 334 335 332 331 331 332 329 329 332 331 331 329 326 325 321 316
327 328 329 331 333 334 336 338 338 336 336 337 337 336 339 336 335 340 338 339 338 334 335 335 335 334 334 334 333 332 333 331 330 331 328 328 329 330 330 328 326 326 322
326 328 328 332 333 334 334 336 336 334 334 336 337 335 337 334 337 339 338 337 338 334 334 335 335 334 333 334 333 331 332 330 330 328 327 326 326 329 331 331 327 326 326
326 327 329 330 331 332 333 334 334 332 333 334 334 334 333 335 337 337 337 338 337 335 332 332 330 333 333 333 332 332 331 330 328 327 326 326 328 325 328 327 326 326 326
326 327 328 328 329 331 331 330 331 331 331 331 333 333 335 336 336 335 337 337 336 333 330 330 330 330 332 332 333 331 331 329 329 328 327 326 327 326 326 325 325 326 326
325 326 327 328 330 331 329 328 329 330 331 330 331 334 336 336 335 336 337 337 336 333 330 329 331 329 330 331 331 331 330 329 329 330 328 327 327 325 324 323 323 324 323
324 326 326 328 330 330 328 327 328 329 330 328 332 335 337 335 336 334 334 335 336 333 329 331 331 332 331 328 330 330 329 330 329 329 329 327 324 323 324 324 322 322 321
324 326 328 329 329 328 325 327 328 328 329 329 332 334 334 332 335 334 334 335 334 332 330 330 329 331 327 309 314 323 328 329 329 327 327 326 321 317 315 316 316 320 320
324 325 327 329 330 327 327 327 328 328 328 329 332 332 332 332 333 333 333 332 332 332 329 329 330 327 324 309 309 312 332 330 330 329 329 327 325 323 321 310 312 311 311
325 327 328 331 332 328 327 329 328 326 326 328 330 331 331 331 333 333 333 333 334 330 328 328 331 326 321 306 305 307 332 330 329 330 329 328 327 324 324 323 322 321 322
328 329 331 333 332 328 328 327 326 325 325 326 329 331 331 331 332 332 334 332 332 331 328 327 325 325 323 302 303 312 331 328 328 328 326 325 322 306 307 322 320 320 318
330 329 331 333 332 329 329 327 325 324 324 325 329 330 332 333 330 334 333 335 334 331 327 324 325 318 324 302 301 310 329 326 324 323 319 307 314 305 308 322 321 319 320
330 332 332 332 333 331 329 326 325 323 326 326 329 330 332 334 335 335 335 335 333 331 328 325 324 329 325 317 300 304 330 326 323 322 321 315 303 307 308 312 323 320 322
330 331 331 333 333 330 328 327 326 326 327 326 327 330 333 331 333 335 335 334 333 330 324 322 322 325 327 312 305 304 315 317 325 323 321 308 300 304 309 313 302 304 314
328 331 331 334 333 330 328 327 329 327 326 326 327 330 331 332 333 334 334 332 331 329 325 324 323 323 325 322 304 303 303 312 325 327 307 297 300 300 303 302 303 306 325
326 332 332 332 332 330 329 330 329 327 325 327 328 331 330 329 331 334 334 331 331 330 328 325 325 325 324 324 323 322 318 308 313 306 311 309 309 307 312 311 312 326 327
327 332 331 332 332 330 328 329 328 327 326 329 328 330 329 329 329 332 328 331 317 326 331 329 327 326 325 325 319 321 326 326 319 320 321 320 321 320 321 324 324 324 323
328 331 334 334 333 331 328 328 328 327 328 328 328 327 328 329 326 325 321 297 301 300 299 308 322 328 313 305 305 305 305 304 304 323 322 321 321 320 319 320 321 324 321

GFSMW_sfc_thetae_042.txt.gz
Theta_e
314 316 315 315 322 325 326 329 334 335 338 337 334 329 326 327 328 329 332 333 332 332 330 329 328 327 326 325 324 323 323 323 324 321 319 320 323 321 322 323 324 326 327
311 314 313 321 324 326 329 333 334 335 336 334 331 330 328 326 327 328 329 333 333 332 330 329 327 327 326 326 325 322 322 322 323 316 315 312 312 318 321 321 323 323 325
310 312 314 321 324 328 329 333 334 335 335 334 331 328 327 327 326 325 325 328 332 331 330 328 326 326 327 325 323 323 321 317 318 318 314 308 306 310 316 320 321 323 321
311 311 312 320 324 326 328 333 335 334 334 332 329 327 324 322 323 324 325 329 331 330 330 328 328 328 325 323 322 323 320 318 315 317 321 316 313 308 310 316 319 320 322
308 310 315 323 325 327 328 333 332 332 330 330 328 325 322 322 322 325 326 325 326 329 331 330 327 325 324 323 322 321 321 319 317 316 316 316 315 314 310 307 313 317 319
307 311 321 326 326 329 331 332 330 329 329 328 327 325 324 322 322 322 322 323 324 325 327 330 325 325 324 322 322 323 321 319 319 317 317 315 313 314 312 309 310 311 316
312 321 323 324 327 329 329 329 328 326 328 327 326 325 322 322 322 322 322 323 322 323 324 325 324 323 324 324 323 321 320 320 319 320 319 319 318 318 315 312 311 311 318
317 321 323 325 327 329 328 328 327 325 327 326 325 324 323 323 324 323 323 323 323 323 323 324 324 324 325 324 323 321 321 321 322 322 321 320 321 321 320 315 313 310 314
318 321 323 326 328 328 327 328 327 326 325 325 324 324 325 324 323 324 325 324 323 325 325 324 324 324 325 325 322 322 322 323 321 322 320 322 323 324 321 319 318 315 312
319 321 323 326 328 327 328 327 327 326 325 325 324 324 323 325 325 326 325 324 325 325 324 324 323 323 324 324 323 321 324 322 321 322 321 320 323 324 324 319 319 318 318
320 321 324 326 327 327 328 327 326 326 324 324 322 322 323 326 324 325 325 323 323 324 324 325 324 324 325 324 322 322 323 321 322 321 321 320 321 322 322 320 321 318 318
320 322 324 325 325 326 327 326 325 325 324 323 324 323 325 324 324 325 325 323 323 323 325 326 325 325 325 324 323 324 324 323 324 322 322 320 324 321 321 319 317 318 319
320 322 323 324 326 326 327 326 325 324 324 324 324 324 324 324 324 324 325 324 324 324 324 324 324 325 325 324 324 325 324 324 323 323 323 322 323 320 322 319 319 319 322
321 322 323 323 325 326 326 326 323 323 323 325 324 323 323 323 323 324 324 325 325 326 325 325 327 326 325 326 326 324 322 323 324 325 325 324 323 321 322 322 322 322 321
320 321 321 322 324 325 325 324 323 322 323 323 325 322 323 324 324 324 325 325 324 327 327 327 324 323 324 324 323 323 323 323 324 325 325 325 323 321 321 323 323 322 320
320 321 322 323 323 323 323 323 322 320 323 324 325 326 324 325 323 323 324 323 323 323 322 323 320 319 320 306 310 319 322 322 322 323 322 323 319 316 312 315 316 320 320
320 321 322 323 323 323 322 319 321 320 324 325 326 326 325 325 324 325 324 321 320 320 319 318 318 315 313 302 304 310 322 320 320 320 322 323 320 318 316 309 310 311 311
320 322 323 323 322 322 319 318 319 323 324 325 327 326 326 324 325 324 322 320 318 318 318 316 315 314 312 301 303 309 321 321 324 321 324 321 320 320 320 320 319 319 320
322 323 324 323 320 319 318 319 317 323 324 325 325 326 325 324 324 322 321 320 320 318 318 317 314 313 313 301 306 318 324 323 322 324 324 322 320 304 306 319 318 317 315
323 323 324 321 319 318 319 318 316 321 323 324 325 326 326 325 324 322 321 320 320 323 322 319 316 310 316 299 304 317 322 319 319 319 318 308 315 302 305 320 318 316 316
322 324 322 319 319 319 319 317 315 316 323 325 325 325 325 324 324 322 321 321 319 319 320 318 317 313 312 310 302 307 317 318 318 318 317 314 301 300 302 309 319 315 318
323 324 321 318 318 319 318 316 314 316 319 324 325 324 324 328 326 323 321 321 318 316 315 317 314 315 313 303 301 303 308 310 319 319 317 310 298 299 301 309 299 302 311
323 323 319 317 319 319 319 315 316 315 318 324 324 324 326 325 324 323 321 320 316 317 319 320 319 316 314 313 301 301 301 306 317 319 309 299 297 298 301 299 302 308 320
323 323 320 317 317 318 319 318 316 317 323 323 324 324 325 322 323 324 323 321 316 315 318 320 318 315 314 314 314 312 309 303 308 303 307 306 307 306 307 308 313 320 320
323 325 321 319 317 318 319 318 318 318 322 323 323 324 324 323 322 321 321 323 320 317 318 319 318 317 317 316 310 312 315 312 310 309 310 316 316 315 317 318 319 319 318
322 324 323 321 320 319 319 320 318 320 322 321 322 322 323 322 319 314 308 295 300 304 306 308 314 318 309 299 299 301 300 297 300 311 310 315 317 317 317 318 318 317 316

GFSMW_sfc_thetae_045.txt.gz
Theta_e
310 312 313 314 313 313 315 315 323 328 332 332 330 327 328 326 326 331 335 334 334 332 329 328 327 326 325 325 324 322 323 322 323 321 320 321 321 320 321 322 323 324 326
308 311 312 312 315 316 321 321 327 331 331 332 327 326 325 324 326 327 332 333 333 334 332 327 326 325 324 323 324 324 321 321 323 318 316 311 315 319 320 320 321 322 325
306 308 309 311 315 320 324 327 329 331 332 330 328 325 325 324 323 323 325 329 334 333 329 328 326 325 326 324 323 323 321 316 320 317 314 309 306 308 314 318 319 320 320
307 307 308 309 317 321 327 330 331 332 332 330 328 327 322 321 321 323 324 326 329 329 329 328 326 325 324 323 321 322 318 316 313 317 318 313 311 307 307 314 316 319 319
304 305 306 310 318 325 327 330 331 331 329 329 329 325 322 321 321 322 323 323 325 328 330 328 326 324 322 322 321 319 318 317 315 314 314 313 313 312 308 307 313 316 317
304 305 308 318 322 325 328 329 331 327 328 327 326 324 322 320 321 320 321 322 323 324 327 327 324 323 322 321 320 320 319 317 316 316 315 313 312 311 310 307 308 310 314
301 309 317 320 323 326 327 327 329 325 325 324 323 323 322 322 321 320 320 321 320 321 323 324 323 321 322 321 320 319 319 318 317 317 316 316 314 315 312 310 308 308 318
301 309 318 320 324 326 327 326 327 324 324 323 322 321 322 322 321 321 321 321 321 321 322 323 322 322 323 323 321 320 319 318 318 318 318 317 317 317 318 314 311 308 312
303 314 319 322 325 326 325 325 325 324 324 323 322 321 322 322 321 321 321 322 321 322 322 322 322 322 322 322 320 319 319 320 319 320 319 318 318 319 320 316 315 312 308
310 317 322 324 325 325 324 324 325 324 323 322 322 323 322 322 323 323 322 322 322 323 322 321 322 321 322 322 320 319 320 320 320 321 320 318 319 322 321 319 316 314 314
315 319 323 325 325 325 325 324 324 323 322 322 321 321 322 323 323 323 323 323 322 322 322 323 322 322 322 321 320 319 321 320 319 319 320 319 319 322 320 319 317 315 318
316 321 324 324 324 325 324 325 324 323 322 321 321 321 321 321 321 323 323 321 321 322 323 323 323 323 323 322 320 321 321 320 320 320 319 321 322 320 320 318 315 316 317
318 321 322 323 324 325 325 324 324 323 321 321 322 321 320 321 322 322 322 321 321 322 323 324 323 323 323 322 322 323 322 322 323 322 321 321 320 319 319 316 317 318 319
319 321 321 322 324 326 325 325 323 323 321 322 321 320 320 321 322 322 322 322 322 322 322 322 324 324 324 324 324 323 321 323 323 324 323 323 322 321 320 319 320 320 319
319 320 321 322 324 324 325 325 323 322 321 322 321 320 321 322 322 322 322 323 323 324 325 326 325 322 323 323 323 321 321 322 323 324 325 324 323 320 321 322 322 320 318
319 321 322 323 323 324 324 324 321 321 322 322 321 322 322 322 321 322 322 321 321 324 323 323 320 318 318 305 311 318 321 320 322 321 322 322 319 315 313 315 316 319 318
320 320 321 323 324 324 325 321 319 319 321 322 324 325 323 322 321 322 321 319 319 319 318 317 317 315 314 301 303 309 321 320 322 320 323 323 320 318 319 311 312 312 311
320 321 322 323 324 323 321 319 318 320 322 323 324 324 324 322 322 321 319 317 316 318 315 315 314 313 312 301 303 307 320 319 320 322 322 320 320 318 318 320 319 320 320
322 322 323 323 323 319 318 319 318 321 322 324 324 324 324 322 322 320 318 316 316 316 314 314 313 313 312 301 302 315 323 323 323 323 322 321 319 303 305 319 316 315 314
322 322 323 323 321 318 318 316 318 321 321 323 324 324 323 323 321 319 318 317 318 321 318 315 312 309 313 300 303 316 322 320 319 320 318 308 313 301 305 319 317 314 314
322 322 322 320 320 317 317 315 319 320 322 324 324 324 323 322 321 319 318 318 321 322 318 315 312 313 314 311 301 306 317 320 319 318 317 313 300 300 301 308 319 314 316
321 323 320 319 317 318 318 314 317 321 322 323 324 323 322 325 322 320 318 318 316 316 314 315 311 316 316 302 300 301 307 309 319 318 317 308 298 299 299 307 300 302 311
321 323 320 316 316 318 318 314 315 316 322 322 322 321 323 323 321 319 321 320 316 318 317 317 316 316 316 314 300 297 299 305 316 318 309 298 296 297 300 299 300 307 318
321 320 316 316 315 317 317 317 314 317 322 320 321 322 322 320 320 321 322 320 318 318 319 318 316 317 315 316 314 311 308 304 308 304 307 305 305 305 306 308 313 317 317
323 319 317 317 317 317 316 315 315 319 320 321 322 323 321 321 319 321 320 320 317 318 319 321 318 316 314 316 309 310 312 314 309 311 315 316 316 314 316 318 318 317 317
322 320 317 317 317 317 316 315 316 320 321 320 321 322 321 320 319 316 313 294 299 303 304 304 312 316 307 298 297 297 297 296 298 313 316 316 316 316 316 317 318 317 313

GFSMW_sfc_thetae_048.txt.gz
Theta_e
310 311 312 312 312 313 312 312 313 320 328 328 327 326 329 331 330 332 335 334 335 334 333 331 330 329 328 328 327 326 325 323 324 323 322 324 325 325 325 327 328 329 330
306 309 311 310 310 311 313 315 314 324 327 329 326 328 326 327 329 332 335 336 335 334 333 332 329 329 327 327 325 326 325 325 326 321 320 314 319 321 325 325 326 328 329
305 307 308 307 308 310 313 318 321 326 329 328 326 324 325 325 325 326 328 332 334 334 333 331 329 327 328 326 326 327 325 321 323 323 318 311 311 314 317 321 324 327 327
304 306 305 306 307 309 319 325 327 329 330 328 326 327 324 323 323 324 327 329 332 332 331 329 328 328 327 326 325 325 324 321 319 321 320 318 317 313 314 319 322 324 325
302 302 303 305 305 314 322 327 329 329 329 328 327 324 322 322 323 324 325 326 328 329 331 330 329 328 326 326 325 324 322 321 319 320 319 318 318 318 316 313 318 321 323
300 301 303 305 311 321 325 328 329 327 328 327 326 325 323 322 322 322 322 323 325 327 329 329 328 327 325 325 324 324 322 321 321 321 320 319 318 317 316 313 314 317 320
299 300 302 312 317 322 325 327 327 325 327 326 326 325 323 323 323 322 322 322 323 324 326 327 326 325 325 325 324 323 323 322 321 321 321 321 320 320 319 317 314 315 320
297 299 301 311 318 323 325 327 326 324 324 324 323 323 323 323 322 323 323 323 324 324 326 326 326 325 326 325 324 324 323 323 322 322 321 322 322 322 321 319 317 314 316
298 300 303 316 322 324 324 326 325 323 323 322 321 322 323 323 323 323 324 324 324 324 325 325 325 325 326 325 324 323 323 323 323 323 323 323 323 323 323 321 321 320 314
300 301 314 321 324 324 324 325 325 323 322 322 323 323 323 324 323 324 324 324 324 325 324 323 324 324 325 325 324 323 323 323 324 324 324 322 323 323 323 323 321 320 321
312 314 321 323 324 324 324 323 323 322 321 322 323 322 323 324 324 324 324 324 325 324 324 324 324 324 324 324 323 323 324 324 323 324 323 322 324 325 323 321 321 322 323
315 320 321 323 324 323 323 322 322 322 322 322 322 322 323 323 322 323 324 324 324 324 325 325 325 325 325 324 324 323 324 323 322 321 321 322 324 323 323 322 321 322 325
316 321 322 322 323 323 324 322 323 322 321 322 321 321 321 321 323 324 323 323 323 324 325 326 325 324 325 325 325 325 323 324 322 322 321 323 322 321 321 321 321 323 324
317 320 321 322 323 324 324 323 322 322 321 322 321 321 321 322 323 324 323 324 324 324 325 325 326 326 326 326 326 325 324 325 323 324 323 323 322 322 320 321 322 323 322
317 319 320 320 323 323 324 324 323 322 321 322 321 321 322 323 323 324 324 325 324 325 325 325 327 326 325 323 325 324 323 325 324 324 324 323 322 321 320 322 322 323 320
317 320 321 322 323 324 323 324 322 322 322 322 321 322 322 323 323 323 324 324 324 325 326 324 323 322 320 302 308 320 323 324 323 323 322 322 318 316 314 315 315 320 322
318 320 322 323 324 324 324 322 322 321 322 322 323 323 323 323 323 323 322 321 321 322 322 322 321 320 318 301 302 309 324 323 323 323 322 323 321 320 323 311 311 310 311
320 321 323 323 324 325 324 321 320 321 322 322 323 324 324 322 323 322 321 319 319 319 318 318 318 318 315 301 302 306 323 323 324 324 323 321 319 319 321 320 319 321 322
321 322 324 324 324 323 322 321 319 321 322 323 323 324 324 322 322 321 319 319 319 319 317 318 317 318 318 301 300 314 325 324 323 323 322 320 318 304 304 320 319 317 314
322 322 323 324 322 321 321 319 319 320 321 323 324 325 325 324 322 321 319 319 321 320 318 316 316 309 318 300 301 316 323 321 320 319 317 306 312 300 304 318 318 314 314
321 322 323 321 321 319 320 318 319 320 323 325 325 324 325 324 323 321 321 320 322 320 317 316 316 318 315 309 302 307 322 320 319 318 316 311 299 300 300 308 319 314 316
320 322 322 320 318 319 319 317 319 321 323 324 324 323 323 325 322 322 320 321 322 319 317 315 315 319 317 304 301 301 308 311 321 318 317 307 297 298 300 307 300 302 310
320 322 320 316 317 318 319 317 319 322 323 323 323 323 323 323 322 321 321 319 320 317 316 317 317 318 318 315 298 297 299 303 319 319 308 296 296 297 300 300 301 306 318
321 321 317 316 315 317 318 319 317 323 323 321 322 322 323 321 322 323 322 321 320 319 317 316 316 318 316 317 315 313 312 304 306 304 306 305 305 305 306 310 314 319 320
322 320 318 317 316 317 316 316 318 323 321 321 322 323 321 322 320 322 319 321 322 319 320 318 319 318 316 317 310 311 316 317 309 311 315 316 315 314 316 318 318 319 319
320 319 318 317 317 318 316 315 318 322 321 321 322 322 322 322 321 317 314 296 299 304 304 302 313 318 305 300 298 296 297 297 301 316 316 315 315 315 317 318 317 318 315